{"data":{"norad_id":43796,"epoch":"2026-09-20T03:38:19.769280Z","epoch_age_seconds":88474,"freshness":"FRESH","line1":"1 43796U 18099AQ  26263.15161770  .00014064  00000+0  37773-3 0  9997","line2":"2 43796  97.4351 333.9302 0005535 310.1126  49.9634 15.38027293427272","mean_motion":15.38027293,"eccentricity":0.0005535,"inclination_deg":97.4351,"raan_deg":333.9302,"arg_perigee_deg":310.1126,"mean_anomaly_deg":49.9634,"bstar":0.00037773,"rev_number":42727,"period_min":93.62642695314,"perigee_km":448.16290554341,"apogee_km":455.72380449642,"semimajor_km":6830.0803550199,"source":"CELESTRAK","updated_at":"2026-09-20T09:00:14.406690Z"}}